DW4577 Weather Reports


time (UTC)temp
F
wind
direction
speed
knots
gust
knots
rain 1hr
in
rain 24hr
in
rain mn
in
humidity
%
barometer
mb
20260508071519 64 330 6.1 10.4 0.00 0.28 0.28 64 1011.7
20260508070015 63 297 3.5 8.7 0.00 0.28 0.28 66 1011.6
20260508064511 63 306 3.5 8.7 0.00 0.28 0.28 68 1011.5
20260508063014 62 360 1.7 7.0 0.00 0.28 0.28 71 1011.3
20260508061506 61 323 4.3 8.7 0.00 0.28 0.28 72 1011.3
20260508060005 61 355 3.5 7.8 0.12 0.28 0.28 72 1011.2
20260508054504 61 5 4.3 8.7 0.12 0.28 0.28 73 1011.0
20260508053107 61 291 3.5 9.6 0.12 0.28 0.28 73 1010.6
20260508051556 61 327 4.3 7.8 0.13 0.28 0.28 73 1010.6
20260508050058 60 355 5.2 8.7 0.02 0.16 0.16 73 1010.5
20260508044548 60 324 3.5 8.7 0.05 0.16 0.16 74 1010.4
20260508043056 60 307 2.6 8.7 0.07 0.16 0.16 73 1010.1
20260508041550 60 311 2.6 6.1 0.09 0.15 0.15 73 1010.2
20260508040044 60 306 3.5 7.0 0.08 0.13 0.13 72 1010.2
20260508034542 60 360 2.6 7.8 0.05 0.10 0.10 71 1010.2
20260508033039 61 337 7.0 10.4 0.04 0.09 0.09 69 1010.2
20260508031537 61 315 4.3 8.7 0.02 0.06 0.06 68 1010.1
20260508030041 61 312 5.2 9.6 0.02 0.06 0.06 68 1010.2
20260508024533 61 351 3.5 7.8 0.03 0.06 0.06 68 1010.1
20260508023031 62 14 2.6 7.0 0.04 0.05 0.05 67 1010.0
20260508021528 62 355 2.6 5.2 0.05 0.05 0.05 66 1010.0
20260508020030 63 10 2.6 5.2 0.03 0.03 0.03 65 1009.9
20260508014524 63 349 2.6 7.0 0.02 0.02 0.02 63 1009.9
20260508013019 64 282 1.7 4.3 0.01 0.01 0.01 61 1010.0
20260508011519 65 293 5.2 7.0 0.00 0.00 0.00 59 1009.8
20260508010017 65 277 1.7 4.3 0.00 0.00 0.00 61 1009.8
20260508004514 66 260 3.5 7.8 0.00 0.00 0.00 64 1009.9
20260508003013 66 263 3.5 8.7 0.00 0.00 0.00 64 1009.8
20260508001522 66 281 1.7 8.7 0.00 0.00 0.00 65 1009.6
20260508000008 66 277 3.5 8.7 0.00 0.00 0.00 64 1009.3
20260507234508 66 271 3.5 7.0 0.00 0.00 0.00 63 1009.5
20260507233013 66 271 1.7 3.5 0.00 0.00 0.00 63 1009.3
20260507231507 66 271 2.6 4.3 0.00 0.00 0.00 63 1009.4
20260507230005 66 238 1.7 4.3 0.00 0.00 0.00 64 1009.5
20260507224500 67 232 0.9 3.5 0.00 0.00 0.00 64 1009.6
20260507223059 67 360 0.0 4.3 0.00 0.00 0.00 63 1009.6
20260507221556 67 267 0.9 7.8 0.00 0.00 0.00 60 1009.8
20260507220052 68 266 3.5 7.0 0.00 0.00 0.00 59 1009.9
20260507214554 68 11 0.9 2.6 0.00 0.00 0.00 56 1009.9
20260507213050 68 11 0.0 0.0 0.00 0.00 0.00 50 1009.8
20260507211550 68 11 0.0 3.5 0.00 0.00 0.00 55 1009.9
20260507210051 69 11 0.0 1.7 0.00 0.00 0.00 50 1009.9
20260507204553 69 55 0.0 0.9 0.00 0.00 0.00 45 1010.0
20260507203050 69 360 0.0 2.6 0.00 0.00 0.00 46 1010.0
20260507201554 69 360 1.7 5.2 0.00 0.00 0.00 46 1010.0
20260507200046 69 360 1.7 7.0 0.00 0.00 0.00 46 1009.9
20260507194547 70 360 2.6 7.8 0.00 0.00 0.00 45 1010.0
20260507193050 70 360 2.6 7.0 0.00 0.00 0.00 46 1010.0
20260507191551 70 360 0.0 4.3 0.00 0.00 0.00 46 1010.0
20260507190046 70 360 2.6 4.3 0.00 0.00 0.00 44 1009.9
20260507184544 70 360 0.0 2.6 0.00 0.00 0.00 45 1009.9
20260507183043 70 360 0.9 4.3 0.00 0.00 0.00 45 1009.9
20260507181541 70 360 2.6 7.0 0.00 0.00 0.00 43 1009.8
20260507180040 70 360 2.6 9.6 0.00 0.00 0.00 44 1009.7
20260507174545 70 360 5.2 8.7 0.00 0.00 0.00 45 1009.4
20260507173038 70 360 3.5 11.3 0.00 0.00 0.00 45 1009.2
20260507171539 70 360 5.2 10.4 0.00 0.00 0.00 46 1009.2
20260507170044 70 360 4.3 9.6 0.00 0.00 0.00 46 1009.2
20260507164535 70 360 5.2 10.4 0.00 0.00 0.00 46 1009.4
20260507163034 71 117 5.2 9.6 0.00 0.00 0.00 47 1009.5
20260507161534 71 112 4.3 10.4 0.00 0.00 0.00 47 1009.4
20260507160035 71 69 5.2 11.3 0.00 0.00 0.00 46 1009.6
20260507154532 71 360 2.6 8.7 0.00 0.00 0.00 46 1009.7
20260507153030 71 360 4.3 11.3 0.00 0.00 0.00 47 1009.5
20260507151530 71 360 3.5 9.6 0.00 0.00 0.00 47 1009.7
20260507150033 71 360 2.6 15.6 0.00 0.00 0.00 48 1009.8
20260507144528 71 360 6.1 13.0 0.00 0.00 0.00 48 1009.8
20260507143031 72 52 7.8 14.8 0.00 0.00 0.00 46 1009.8
20260507141527 73 76 7.0 11.3 0.00 0.00 0.00 46 1009.8
20260507140127 73 140 1.7 7.0 0.00 0.00 0.00 45 1009.8
20260507134524 73 172 2.6 8.7 0.00 0.00 0.00 43 1009.8
20260507133022 74 119 1.7 7.0 0.00 0.00 0.00 42 1010.1
20260507131527 74 103 1.7 7.0 0.00 0.00 0.00 40 1010.2
20260507130020 75 147 1.7 5.2 0.00 0.00 0.00 40 1010.3
20260507124519 75 155 2.6 5.2 0.00 0.01 0.00 41 1010.2
20260507123016 74 112 1.7 6.1 0.00 0.01 0.00 44 1010.3
20260507121516 75 221 1.7 6.1 0.00 0.01 0.00 42 1010.4
20260507120029 74 211 2.6 6.1 0.00 0.01 0.00 43 1010.5
20260507114514 74 155 1.7 6.1 0.00 0.01 0.00 41 1010.5
20260507113013 74 99 1.7 7.8 0.00 0.01 0.00 43 1010.7
20260507111511 74 157 2.6 6.1 0.00 0.01 0.00 41 1010.7
20260507110010 74 212 2.6 7.0 0.00 0.01 0.00 42 1011.0
20260507104511 73 169 0.9 4.3 0.00 0.01 0.00 46 1010.9
20260507103007 73 227 2.6 6.1 0.00 0.01 0.00 48 1011.1
20260507101506 74 263 0.9 5.2 0.00 0.01 0.00 48 1011.3
20260507100002 72 25 3.5 5.2 0.00 0.01 0.00 48 1011.2
20260507094558 71 11 0.0 3.5 0.00 0.01 0.00 52 1011.3
20260507093058 71 36 1.7 5.2 0.00 0.01 0.00 53 1011.5
20260507091557 71 360 2.6 4.3 0.00 0.01 0.00 53 1011.6
20260507090055 69 130 0.9 5.2 0.00 0.01 0.00 56 1011.7
20260507084548 68 99 3.5 7.0 0.00 0.01 0.00 58 1011.7
20260507083045 69 162 0.9 5.2 0.00 0.01 0.00 58 1011.7
20260507081549 68 93 2.6 5.2 0.00 0.01 0.00 58 1011.3
20260507080044 67 12 0.0 2.6 0.00 0.01 0.00 61 1011.3
20260507074553 65 13 0.9 5.2 0.00 0.01 0.00 64 1011.3
20260507073034 64 360 3.5 7.8 0.00 0.01 0.00 64 1011.5